Time,TemperatureF,DewpointF,PressureIn,WindDirection,WindDirectionDegrees,WindSpeedMPH,WindSpeedGustMPH,Humidity,HourlyPrecipIn,Conditions,Clouds,dailyrainin,SolarRadiationWatts/m^2,SoftwareType,DateUTC
2013-03-03 00:02:00,74.7,68.7,29.96,South,175,0.0,10.0,82,0.00,,,0.00,0.0,meteohub,2013-03-03 04:02:00,
2013-03-03 00:07:00,74.7,68.7,29.96,SE,136,11.0,11.0,82,0.00,,,0.00,0.0,meteohub,2013-03-03 04:07:00,
2013-03-03 00:12:00,74.7,69.1,29.96,South,176,0.0,11.0,83,0.00,,,0.00,0.0,meteohub,2013-03-03 04:12:00,
2013-03-03 00:17:00,74.7,69.1,29.95,South,175,6.0,11.0,83,0.00,,,0.00,0.0,meteohub,2013-03-03 04:17:00,
2013-03-03 00:22:00,74.5,68.9,29.95,SE,130,0.0,11.0,83,0.00,,,0.00,0.0,meteohub,2013-03-03 04:22:00,
2013-03-03 00:27:00,74.5,68.9,29.95,South,185,3.0,12.0,83,0.00,,,0.00,0.0,meteohub,2013-03-03 04:27:00,
2013-03-03 00:32:00,74.1,68.5,29.95,SSE,164,10.0,12.0,83,0.00,,,0.00,0.0,meteohub,2013-03-03 04:32:00,
2013-03-03 00:37:00,73.9,68.4,29.95,South,178,3.0,12.0,83,0.00,,,0.00,0.0,meteohub,2013-03-03 04:37:00,
2013-03-03 00:42:00,73.9,68.7,29.95,South,182,2.0,11.0,84,0.00,,,0.00,0.0,meteohub,2013-03-03 04:42:00,
2013-03-03 00:47:00,73.9,68.7,29.94,South,171,5.0,11.0,84,0.00,,,0.00,0.0,meteohub,2013-03-03 04:47:00,
2013-03-03 00:52:00,73.8,68.5,29.94,SSE,168,6.0,9.0,84,0.00,,,0.00,0.0,meteohub,2013-03-03 04:52:00,
2013-03-03 00:57:00,73.8,68.9,29.94,South,189,1.0,10.0,85,0.00,,,0.00,0.0,meteohub,2013-03-03 04:57:00,
2013-03-03 01:00:00,73.8,68.9,29.94,SSW,193,0.0,10.0,85,0.00,,,0.00,0.0,meteohub,2013-03-03 05:00:00,
2013-03-03 01:01:00,73.8,68.9,29.94,SSW,193,0.0,10.0,85,0.00,,,0.00,0.0,meteohub,2013-03-03 05:01:00,
2013-03-03 01:06:00,73.9,69.1,29.94,SSE,168,5.0,10.0,85,0.00,,,0.00,0.0,meteohub,2013-03-03 05:06:00,
2013-03-03 01:11:00,73.9,69.1,29.94,SSE,165,3.0,10.0,85,0.00,,,0.00,0.0,meteohub,2013-03-03 05:11:00,
2013-03-03 01:16:00,73.9,69.1,29.93,SSW,193,6.0,11.0,85,0.00,,,0.00,0.0,meteohub,2013-03-03 05:16:00,
2013-03-03 01:21:00,73.8,68.9,29.93,SSE,160,0.0,12.0,85,0.00,,,0.00,0.0,meteohub,2013-03-03 05:21:00,
2013-03-03 01:26:00,73.8,69.3,29.93,SSE,161,0.0,12.0,86,0.00,,,0.00,0.0,meteohub,2013-03-03 05:26:00,
2013-03-03 01:31:00,73.6,69.1,29.93,SSE,150,0.0,13.0,86,0.00,,,0.00,0.0,meteohub,2013-03-03 05:31:00,
2013-03-03 01:36:00,73.2,68.7,29.93,SSW,192,0.0,13.0,86,0.00,,,0.00,0.0,meteohub,2013-03-03 05:36:00,
2013-03-03 01:42:00,73.2,68.7,29.93,South,182,0.0,7.0,86,0.00,,,0.00,0.0,meteohub,2013-03-03 05:42:00,
2013-03-03 01:47:00,73.2,68.7,29.93,SSE,162,0.0,9.0,86,0.00,,,0.00,0.0,meteohub,2013-03-03 05:47:00,
2013-03-03 01:52:00,73.0,68.5,29.93,South,178,2.0,12.0,86,0.00,,,0.00,0.0,meteohub,2013-03-03 05:52:00,
2013-03-03 01:57:00,72.9,68.4,29.93,South,191,5.0,12.0,86,0.00,,,0.00,0.0,meteohub,2013-03-03 05:57:00,
2013-03-03 02:02:00,72.7,68.2,29.92,SSE,162,6.0,12.0,86,0.00,,,0.00,0.0,meteohub,2013-03-03 06:02:00,
2013-03-03 02:07:00,72.7,68.5,29.92,South,174,0.0,12.0,87,0.00,,,0.00,0.0,meteohub,2013-03-03 06:07:00,
2013-03-03 02:12:00,72.7,68.5,29.92,South,174,0.0,8.0,87,0.00,,,0.00,0.0,meteohub,2013-03-03 06:12:00,
2013-03-03 02:17:00,72.7,68.5,29.93,South,172,0.0,8.0,87,0.00,,,0.00,0.0,meteohub,2013-03-03 06:17:00,
2013-03-03 02:22:00,72.7,68.5,29.93,South,174,0.0,8.0,87,0.00,,,0.00,0.0,meteohub,2013-03-03 06:22:00,
2013-03-03 02:27:00,72.7,68.5,29.93,SSE,168,0.0,1.0,87,0.00,,,0.00,0.0,meteohub,2013-03-03 06:27:00,
2013-03-03 02:32:00,72.5,68.4,29.93,South,172,0.0,0.0,87,0.00,,,0.00,0.0,meteohub,2013-03-03 06:32:00,
2013-03-03 02:37:00,72.5,68.4,29.93,South,174,0.0,0.0,87,0.00,,,0.00,0.0,meteohub,2013-03-03 06:37:00,
2013-03-03 02:42:00,72.3,68.5,29.93,South,172,0.0,0.0,88,0.00,,,0.00,0.0,meteohub,2013-03-03 06:42:00,
2013-03-03 02:47:00,72.1,68.4,29.92,South,172,0.0,0.0,88,0.00,,,0.00,0.0,meteohub,2013-03-03 06:47:00,
2013-03-03 02:52:00,72.1,68.4,29.92,South,174,0.0,0.0,88,0.00,,,0.00,0.0,meteohub,2013-03-03 06:52:00,
2013-03-03 02:57:00,72.0,68.2,29.92,South,174,0.0,0.0,88,0.00,,,0.00,0.0,meteohub,2013-03-03 06:57:00,
2013-03-03 03:02:00,72.0,68.2,29.92,South,171,0.0,0.0,88,0.00,,,0.00,0.0,meteohub,2013-03-03 07:02:00,
2013-03-03 03:07:00,71.8,68.0,29.92,South,174,0.0,0.0,88,0.00,,,0.00,0.0,meteohub,2013-03-03 07:07:00,
2013-03-03 03:12:00,71.8,68.4,29.92,South,174,0.0,0.0,89,0.00,,,0.00,0.0,meteohub,2013-03-03 07:12:00,
2013-03-03 03:17:00,71.8,68.4,29.92,South,174,0.0,0.0,89,0.00,,,0.00,0.0,meteohub,2013-03-03 07:17:00,
2013-03-03 03:22:00,71.6,68.2,29.92,South,174,0.0,0.0,89,0.00,,,0.00,0.0,meteohub,2013-03-03 07:22:00,
2013-03-03 03:27:00,71.6,68.2,29.92,South,174,0.0,0.0,89,0.00,,,0.00,0.0,meteohub,2013-03-03 07:27:00,
2013-03-03 03:32:00,71.6,68.2,29.92,South,174,0.0,5.0,89,0.00,,,0.00,0.0,meteohub,2013-03-03 07:32:00,
2013-03-03 03:37:00,71.6,68.2,29.92,South,175,0.0,5.0,89,0.00,,,0.00,0.0,meteohub,2013-03-03 07:37:00,
2013-03-03 03:42:00,71.6,68.2,29.92,South,175,0.0,1.0,89,0.00,,,0.00,0.0,meteohub,2013-03-03 07:42:00,
2013-03-03 03:47:00,71.6,68.2,29.92,South,174,0.0,1.0,89,0.00,,,0.00,0.0,meteohub,2013-03-03 07:47:00,
2013-03-03 03:52:00,71.6,68.2,29.92,South,174,0.0,0.0,89,0.00,,,0.00,0.0,meteohub,2013-03-03 07:52:00,
2013-03-03 03:57:00,71.6,68.2,29.92,South,172,0.0,0.0,89,0.00,,,0.00,0.0,meteohub,2013-03-03 07:57:00,
2013-03-03 04:03:00,71.6,68.2,29.92,South,174,0.0,0.0,89,0.00,,,0.00,0.0,meteohub,2013-03-03 08:03:00,
2013-03-03 04:08:00,71.4,68.0,29.92,South,174,0.0,0.0,89,0.00,,,0.00,0.0,meteohub,2013-03-03 08:08:00,
2013-03-03 04:13:00,71.4,68.0,29.92,South,172,0.0,0.0,89,0.00,,,0.00,0.0,meteohub,2013-03-03 08:13:00,
2013-03-03 04:18:00,71.6,68.2,29.92,South,174,0.0,0.0,89,0.00,,,0.00,0.0,meteohub,2013-03-03 08:18:00,
2013-03-03 04:23:00,71.8,68.0,29.92,South,171,0.0,0.0,88,0.00,,,0.00,0.0,meteohub,2013-03-03 08:23:00,
2013-03-03 04:28:00,71.8,68.0,29.92,South,171,0.0,0.0,88,0.00,,,0.00,0.0,meteohub,2013-03-03 08:28:00,
2013-03-03 04:33:00,71.8,68.0,29.92,South,174,0.0,0.0,88,0.00,,,0.00,0.0,meteohub,2013-03-03 08:33:00,
2013-03-03 04:38:00,71.6,67.8,29.92,South,174,0.0,0.0,88,0.00,,,0.00,0.0,meteohub,2013-03-03 08:38:00,
2013-03-03 04:43:00,71.4,67.6,29.92,South,175,0.0,0.0,88,0.00,,,0.00,0.0,meteohub,2013-03-03 08:43:00,
2013-03-03 04:48:00,71.2,67.5,29.92,South,172,0.0,0.0,88,0.00,,,0.00,0.0,meteohub,2013-03-03 08:48:00,
2013-03-03 04:53:00,71.4,67.6,29.92,South,172,0.0,0.0,88,0.00,,,0.00,0.0,meteohub,2013-03-03 08:53:00,
2013-03-03 04:58:00,71.2,67.5,29.93,South,174,0.0,0.0,88,0.00,,,0.00,0.0,meteohub,2013-03-03 08:58:00,
2013-03-03 05:03:00,71.2,67.5,29.93,South,174,0.0,0.0,88,0.00,,,0.00,0.0,meteohub,2013-03-03 09:03:00,
2013-03-03 05:08:00,71.2,67.5,29.93,South,172,0.0,0.0,88,0.00,,,0.00,0.0,meteohub,2013-03-03 09:08:00,
2013-03-03 05:13:00,71.1,67.3,29.93,South,175,0.0,0.0,88,0.00,,,0.00,0.0,meteohub,2013-03-03 09:13:00,
2013-03-03 05:18:00,71.1,67.6,29.93,South,172,0.0,0.0,89,0.00,,,0.00,0.0,meteohub,2013-03-03 09:18:00,
2013-03-03 05:23:00,70.9,67.5,29.93,South,172,0.0,0.0,89,0.00,,,0.00,0.0,meteohub,2013-03-03 09:23:00,
2013-03-03 05:28:00,71.1,67.6,29.94,South,174,0.0,0.0,89,0.00,,,0.00,0.0,meteohub,2013-03-03 09:28:00,
2013-03-03 05:33:00,71.1,67.6,29.94,South,174,0.0,0.0,89,0.00,,,0.00,0.0,meteohub,2013-03-03 09:33:00,
2013-03-03 05:38:00,71.2,67.8,29.94,South,171,0.0,0.0,89,0.00,,,0.00,0.0,meteohub,2013-03-03 09:38:00,
2013-03-03 05:43:00,71.1,67.6,29.94,South,172,0.0,0.0,89,0.00,,,0.00,0.0,meteohub,2013-03-03 09:43:00,
2013-03-03 05:48:00,71.1,68.0,29.94,South,175,0.0,0.0,90,0.00,,,0.00,0.0,meteohub,2013-03-03 09:48:00,
2013-03-03 05:54:00,71.1,68.0,29.94,South,174,0.0,0.0,90,0.00,,,0.00,0.0,meteohub,2013-03-03 09:54:00,
2013-03-03 05:59:00,70.9,67.8,29.94,South,172,0.0,0.0,90,0.00,,,0.00,0.0,meteohub,2013-03-03 09:59:00,
2013-03-03 06:04:00,70.9,68.2,29.94,South,172,0.0,0.0,91,0.00,,,0.00,0.0,meteohub,2013-03-03 10:04:00,
2013-03-03 06:09:00,70.5,67.8,29.94,South,174,0.0,0.0,91,0.00,,,0.00,0.0,meteohub,2013-03-03 10:09:00,
2013-03-03 06:14:00,70.5,67.8,29.95,South,175,0.0,0.0,91,0.00,,,0.00,0.0,meteohub,2013-03-03 10:14:00,
2013-03-03 06:19:00,70.5,67.8,29.95,South,174,0.0,0.0,91,0.00,,,0.00,0.0,meteohub,2013-03-03 10:19:00,
2013-03-03 06:24:00,70.5,67.8,29.95,South,174,0.0,0.0,91,0.00,,,0.00,0.0,meteohub,2013-03-03 10:24:00,
2013-03-03 06:29:00,70.5,67.8,29.95,South,175,0.0,0.0,91,0.00,,,0.00,0.0,meteohub,2013-03-03 10:29:00,
2013-03-03 06:34:00,70.3,67.6,29.95,South,171,0.0,0.0,91,0.00,,,0.00,0.0,meteohub,2013-03-03 10:34:00,
2013-03-03 06:39:00,70.3,67.6,29.95,South,174,0.0,0.0,91,0.00,,,0.00,0.0,meteohub,2013-03-03 10:39:00,
2013-03-03 06:44:00,70.3,67.8,29.96,South,174,0.0,0.0,92,0.00,,,0.00,0.0,meteohub,2013-03-03 10:44:00,
2013-03-03 06:49:00,70.3,67.8,29.96,South,172,0.0,0.0,92,0.00,,,0.00,5.0,meteohub,2013-03-03 10:49:00,
2013-03-03 06:54:00,70.3,67.8,29.96,South,174,0.0,0.0,92,0.00,,,0.00,9.0,meteohub,2013-03-03 10:54:00,
2013-03-03 06:59:00,70.2,67.6,29.97,South,172,0.0,0.0,92,0.00,,,0.00,26.0,meteohub,2013-03-03 10:59:00,
2013-03-03 07:04:00,70.3,67.8,29.97,South,174,0.0,0.0,92,0.00,,,0.00,40.0,meteohub,2013-03-03 11:04:00,
2013-03-03 07:09:00,70.3,67.8,29.97,South,172,0.0,0.0,92,0.00,,,0.00,70.0,meteohub,2013-03-03 11:09:00,
2013-03-03 07:14:00,70.5,68.0,29.98,South,175,0.0,0.0,92,0.00,,,0.00,72.0,meteohub,2013-03-03 11:14:00,
2013-03-03 07:19:00,70.9,68.4,29.98,South,174,0.0,0.0,92,0.00,,,0.00,58.0,meteohub,2013-03-03 11:19:00,
2013-03-03 07:24:00,71.1,68.4,29.98,South,174,0.0,0.0,91,0.00,,,0.00,39.0,meteohub,2013-03-03 11:24:00,
2013-03-03 07:29:00,71.2,68.5,29.98,South,174,0.0,0.0,91,0.00,,,0.00,83.0,meteohub,2013-03-03 11:29:00,
2013-03-03 07:34:00,71.6,68.5,29.98,South,174,0.0,0.0,90,0.00,,,0.00,91.0,meteohub,2013-03-03 11:34:00,
2013-03-03 07:39:00,72.0,68.9,29.98,South,172,0.0,0.0,90,0.00,,,0.00,42.0,meteohub,2013-03-03 11:39:00,
2013-03-03 07:44:00,72.1,68.7,29.98,South,172,0.0,0.0,89,0.00,,,0.00,58.0,meteohub,2013-03-03 11:44:00,
2013-03-03 07:49:00,72.5,69.1,29.98,South,172,0.0,0.0,89,0.00,,,0.00,44.0,meteohub,2013-03-03 11:49:00,
2013-03-03 07:54:00,72.7,69.3,29.98,South,174,0.0,0.0,89,0.00,,,0.00,51.0,meteohub,2013-03-03 11:54:00,
2013-03-03 07:59:00,73.0,69.3,29.99,South,172,0.0,0.0,88,0.00,,,0.00,253.0,meteohub,2013-03-03 11:59:00,
2013-03-03 08:04:00,73.2,69.4,29.99,South,172,0.0,0.0,88,0.00,,,0.00,143.0,meteohub,2013-03-03 12:04:00,
2013-03-03 08:09:00,74.1,70.0,29.99,South,175,0.0,0.0,87,0.00,,,0.00,266.0,meteohub,2013-03-03 12:09:00,
2013-03-03 08:14:00,74.8,70.3,29.99,South,174,0.0,0.0,86,0.00,,,0.00,269.0,meteohub,2013-03-03 12:14:00,
2013-03-03 08:20:00,75.6,70.7,29.99,South,174,0.0,0.0,85,0.00,,,0.00,348.0,meteohub,2013-03-03 12:20:00,
2013-03-03 08:25:00,76.3,71.1,29.99,South,172,0.0,6.0,84,0.00,,,0.00,373.0,meteohub,2013-03-03 12:25:00,
2013-03-03 08:30:00,76.5,71.2,29.99,South,172,0.0,6.0,84,0.00,,,0.00,396.0,meteohub,2013-03-03 12:30:00,
2013-03-03 08:35:00,77.2,70.9,29.99,South,175,0.0,6.0,81,0.00,,,0.00,421.0,meteohub,2013-03-03 12:35:00,
2013-03-03 08:40:00,77.5,70.9,29.99,South,174,0.0,6.0,80,0.00,,,0.00,445.0,meteohub,2013-03-03 12:40:00,
2013-03-03 08:45:00,77.9,71.2,30.00,ESE,116,0.0,6.0,80,0.00,,,0.00,470.0,meteohub,2013-03-03 12:45:00,
2013-03-03 08:50:00,78.3,70.9,30.00,ESE,121,0.0,6.0,78,0.00,,,0.00,484.0,meteohub,2013-03-03 12:50:00,
2013-03-03 08:55:00,78.6,70.9,30.00,SE,143,0.0,6.0,77,0.00,,,0.00,501.0,meteohub,2013-03-03 12:55:00,
2013-03-03 09:00:00,79.0,71.1,30.01,SE,143,0.0,6.0,77,0.00,,,0.00,523.0,meteohub,2013-03-03 13:00:00,
2013-03-03 09:05:00,79.3,71.4,30.01,SE,141,0.0,6.0,77,0.00,,,0.00,551.0,meteohub,2013-03-03 13:05:00,
2013-03-03 09:10:00,80.1,71.8,30.01,SE,143,0.0,1.0,76,0.00,,,0.00,575.0,meteohub,2013-03-03 13:10:00,
2013-03-03 09:16:00,80.1,71.4,30.01,SSE,161,0.0,5.0,75,0.00,,,0.00,612.0,meteohub,2013-03-03 13:16:00,
2013-03-03 09:20:00,80.2,71.2,30.01,SSE,161,0.0,5.0,74,0.00,,,0.00,644.0,meteohub,2013-03-03 13:20:00,
2013-03-03 09:25:00,80.8,72.1,30.01,SSE,161,0.0,5.0,75,0.00,,,0.00,644.0,meteohub,2013-03-03 13:25:00,
2013-03-03 09:30:00,81.1,71.6,30.01,South,188,0.0,1.0,73,0.00,,,0.00,648.0,meteohub,2013-03-03 13:30:00,
2013-03-03 09:35:00,81.1,71.6,30.01,SSE,155,0.0,8.0,73,0.00,,,0.00,311.0,meteohub,2013-03-03 13:35:00,
2013-03-03 09:41:00,81.9,72.3,30.01,SE,140,4.0,8.0,73,0.00,,,0.00,311.0,meteohub,2013-03-03 13:41:00,
2013-03-03 09:46:00,82.0,72.1,30.01,SSE,158,0.0,8.0,72,0.00,,,0.00,384.0,meteohub,2013-03-03 13:46:00,
2013-03-03 09:51:00,82.0,72.1,30.01,SE,138,0.0,7.0,72,0.00,,,0.00,384.0,meteohub,2013-03-03 13:51:00,
2013-03-03 09:56:00,81.7,72.1,30.01,SSE,151,0.0,8.0,73,0.00,,,0.00,551.0,meteohub,2013-03-03 13:56:00,
2013-03-03 10:01:00,81.7,72.1,30.02,South,171,5.0,8.0,73,0.00,,,0.00,343.0,meteohub,2013-03-03 14:01:00,
2013-03-03 10:06:00,82.0,71.8,30.02,SSE,155,4.0,8.0,71,0.00,,,0.00,431.0,meteohub,2013-03-03 14:06:00,
2013-03-03 10:11:00,82.6,72.1,30.02,South,185,3.0,12.0,71,0.00,,,0.00,440.0,meteohub,2013-03-03 14:11:00,
2013-03-03 10:16:00,82.6,72.1,30.02,SSW,203,11.0,12.0,71,0.00,,,0.00,273.0,meteohub,2013-03-03 14:16:00,
2013-03-03 10:21:00,82.2,72.3,30.02,WSW,243,10.0,12.0,72,0.00,,,0.00,334.0,meteohub,2013-03-03 14:21:00,
2013-03-03 10:26:00,82.4,72.0,30.02,SSW,212,0.0,11.0,71,0.00,,,0.00,336.0,meteohub,2013-03-03 14:26:00,
2013-03-03 10:31:00,82.9,72.5,30.02,South,185,6.0,11.0,71,0.00,,,0.00,336.0,meteohub,2013-03-03 14:31:00,
2013-03-03 10:36:00,83.7,72.3,30.02,SSW,212,0.0,11.0,69,0.00,,,0.00,973.0,meteohub,2013-03-03 14:36:00,
2013-03-03 10:41:00,84.0,72.7,30.02,SW,227,0.0,8.0,69,0.00,,,0.00,973.0,meteohub,2013-03-03 14:41:00,
2013-03-03 10:46:00,84.4,72.7,30.02,SE,145,0.0,8.0,68,0.00,,,0.00,530.0,meteohub,2013-03-03 14:46:00,
2013-03-03 10:51:00,84.7,72.5,30.02,SSW,202,0.0,8.0,67,0.00,,,0.00,663.0,meteohub,2013-03-03 14:51:00,
2013-03-03 10:56:00,85.3,72.7,30.02,SSE,154,1.0,8.0,66,0.00,,,0.00,970.0,meteohub,2013-03-03 14:56:00,
2013-03-03 11:01:00,85.6,72.5,30.01,SSE,152,0.0,7.0,65,0.00,,,0.00,970.0,meteohub,2013-03-03 15:01:00,
2013-03-03 11:06:00,85.8,72.1,30.01,SSE,148,2.0,11.0,64,0.00,,,0.00,385.0,meteohub,2013-03-03 15:06:00,
2013-03-03 11:11:00,86.4,72.3,30.01,South,176,9.0,12.0,63,0.00,,,0.00,973.0,meteohub,2013-03-03 15:11:00,
2013-03-03 11:16:00,86.5,72.5,30.01,South,189,6.0,13.0,63,0.00,,,0.00,614.0,meteohub,2013-03-03 15:16:00,
2013-03-03 11:21:00,87.1,72.5,30.01,SSE,164,3.0,13.0,62,0.00,,,0.00,153.0,meteohub,2013-03-03 15:21:00,
2013-03-03 11:26:00,87.6,72.0,30.01,South,171,0.0,13.0,60,0.00,,,0.00,128.0,meteohub,2013-03-03 15:26:00,
2013-03-03 11:31:00,87.8,71.6,30.00,South,174,6.0,13.0,59,0.00,,,0.00,355.0,meteohub,2013-03-03 15:31:00,
2013-03-03 11:36:00,88.0,72.3,30.00,SSW,200,0.0,13.0,60,0.00,,,0.00,252.0,meteohub,2013-03-03 15:36:00,
2013-03-03 11:41:00,88.2,72.0,30.00,SSE,167,3.0,12.0,59,0.00,,,0.00,1101.0,meteohub,2013-03-03 15:41:00,
2013-03-03 11:46:00,89.1,71.8,30.00,South,181,0.0,14.0,57,0.00,,,0.00,1070.0,meteohub,2013-03-03 15:46:00,
2013-03-03 11:51:00,89.8,71.4,30.00,South,185,1.0,14.0,55,0.00,,,0.00,1077.0,meteohub,2013-03-03 15:51:00,
2013-03-03 11:57:00,89.8,70.9,30.00,South,182,3.0,13.0,54,0.00,,,0.00,1172.0,meteohub,2013-03-03 15:57:00,
2013-03-03 12:02:00,89.4,72.7,29.99,South,178,4.0,13.0,58,0.00,,,0.00,1172.0,meteohub,2013-03-03 16:02:00,
2013-03-03 12:07:00,89.2,73.0,29.99,South,175,2.0,13.0,59,0.00,,,0.00,1158.0,meteohub,2013-03-03 16:07:00,
2013-03-03 12:12:00,89.1,72.9,29.99,SSE,157,8.0,13.0,59,0.00,,,0.00,1158.0,meteohub,2013-03-03 16:12:00,
2013-03-03 12:17:00,88.2,72.5,29.98,SE,134,2.0,10.0,60,0.00,,,0.00,206.0,meteohub,2013-03-03 16:17:00,
2013-03-03 12:22:00,87.6,72.0,29.98,South,179,1.0,10.0,60,0.00,,,0.00,267.0,meteohub,2013-03-03 16:22:00,
2013-03-03 12:27:00,87.3,72.7,29.98,South,179,4.0,10.0,62,0.00,,,0.00,253.0,meteohub,2013-03-03 16:27:00,
2013-03-03 12:32:00,87.3,72.7,29.98,SSW,205,0.0,8.0,62,0.00,,,0.00,292.0,meteohub,2013-03-03 16:32:00,
2013-03-03 12:37:00,87.6,71.1,29.98,SSE,157,5.0,8.0,58,0.00,,,0.00,255.0,meteohub,2013-03-03 16:37:00,
2013-03-03 12:42:00,88.9,71.1,29.98,SW,216,3.0,8.0,56,0.00,,,0.00,255.0,meteohub,2013-03-03 16:42:00,
2013-03-03 12:47:00,88.5,71.4,29.96,SSW,213,2.0,8.0,57,0.00,,,0.00,276.0,meteohub,2013-03-03 16:47:00,
2013-03-03 12:52:00,88.5,71.4,29.96,SSW,208,3.0,10.0,57,0.00,,,0.00,1117.0,meteohub,2013-03-03 16:52:00,
2013-03-03 12:57:00,90.1,71.2,29.96,SSE,160,1.0,10.0,54,0.00,,,0.00,1144.0,meteohub,2013-03-03 16:57:00,
2013-03-03 13:02:00,90.5,71.6,29.96,SW,226,0.0,12.0,54,0.00,,,0.00,1098.0,meteohub,2013-03-03 17:02:00,
2013-03-03 13:07:00,90.7,73.4,29.96,NNW,339,1.0,12.0,57,0.00,,,0.00,1123.0,meteohub,2013-03-03 17:07:00,
2013-03-03 13:12:00,89.1,74.8,29.96,NNE,28,0.0,12.0,63,0.00,,,0.00,1138.0,meteohub,2013-03-03 17:12:00,
2013-03-03 13:17:00,88.0,74.7,29.96,NE,38,2.0,7.0,65,0.00,,,0.00,292.0,meteohub,2013-03-03 17:17:00,
2013-03-03 13:22:00,86.5,74.3,29.96,North,11,2.0,10.0,67,0.00,,,0.00,259.0,meteohub,2013-03-03 17:22:00,
2013-03-03 13:27:00,85.5,74.1,29.96,North,11,3.0,10.0,69,0.00,,,0.00,327.0,meteohub,2013-03-03 17:27:00,
2013-03-03 13:32:00,84.9,73.6,29.96,North,0,2.0,10.0,69,0.00,,,0.00,239.0,meteohub,2013-03-03 17:32:00,
2013-03-03 13:37:00,84.6,73.8,29.96,NE,54,2.0,7.0,70,0.00,,,0.00,257.0,meteohub,2013-03-03 17:37:00,
2013-03-03 13:42:00,84.0,73.2,29.96,NNE,18,4.0,8.0,70,0.00,,,0.00,285.0,meteohub,2013-03-03 17:42:00,
2013-03-03 13:47:00,84.0,73.2,29.96,NNE,31,2.0,8.0,70,0.00,,,0.00,310.0,meteohub,2013-03-03 17:47:00,
2013-03-03 13:52:00,84.0,72.7,29.96,ENE,65,2.0,8.0,69,0.00,,,0.00,994.0,meteohub,2013-03-03 17:52:00,
2013-03-03 13:57:00,84.9,73.6,29.96,NNE,28,5.0,9.0,69,0.00,,,0.00,1059.0,meteohub,2013-03-03 17:57:00,
2013-03-03 14:02:00,85.3,73.6,29.95,NNE,24,7.0,10.0,68,0.00,,,0.00,1042.0,meteohub,2013-03-03 18:02:00,
2013-03-03 14:07:00,85.6,73.0,29.95,NE,41,7.0,10.0,66,0.00,,,0.00,999.0,meteohub,2013-03-03 18:07:00,
2013-03-03 14:12:00,85.6,73.0,29.95,NNE,31,1.0,10.0,66,0.00,,,0.00,271.0,meteohub,2013-03-03 18:12:00,
2013-03-03 14:17:00,85.8,72.7,29.94,NE,51,1.0,10.0,65,0.00,,,0.00,1017.0,meteohub,2013-03-03 18:17:00,
2013-03-03 14:22:00,85.3,72.1,29.94,North,0,1.0,10.0,65,0.00,,,0.00,216.0,meteohub,2013-03-03 18:22:00,
2013-03-03 14:27:00,85.3,72.1,29.94,NE,45,5.0,9.0,65,0.00,,,0.00,327.0,meteohub,2013-03-03 18:27:00,
2013-03-03 14:33:00,85.6,72.5,29.94,NNE,32,3.0,9.0,65,0.00,,,0.00,246.0,meteohub,2013-03-03 18:33:00,
2013-03-03 14:37:00,85.8,72.1,29.94,North,8,0.0,8.0,64,0.00,,,0.00,239.0,meteohub,2013-03-03 18:37:00,
2013-03-03 14:43:00,85.8,71.8,29.93,NE,45,2.0,9.0,63,0.00,,,0.00,216.0,meteohub,2013-03-03 18:43:00,
2013-03-03 14:48:00,85.3,71.8,29.93,NNE,23,10.0,10.0,64,0.00,,,0.00,232.0,meteohub,2013-03-03 18:48:00,
2013-03-03 14:53:00,85.1,72.5,29.93,NE,37,6.0,11.0,66,0.00,,,0.00,878.0,meteohub,2013-03-03 18:53:00,
2013-03-03 14:58:00,85.3,72.1,29.93,North,0,3.0,11.0,65,0.00,,,0.00,199.0,meteohub,2013-03-03 18:58:00,
2013-03-03 15:03:00,85.6,72.5,29.93,North,4,1.0,11.0,65,0.00,,,0.00,827.0,meteohub,2013-03-03 19:03:00,
2013-03-03 15:08:00,85.5,72.3,29.93,NNE,31,5.0,9.0,65,0.00,,,0.00,216.0,meteohub,2013-03-03 19:08:00,
2013-03-03 15:13:00,85.6,72.5,29.92,North,11,1.0,9.0,65,0.00,,,0.00,776.0,meteohub,2013-03-03 19:13:00,
2013-03-03 15:18:00,86.2,72.5,29.92,NE,38,5.0,8.0,64,0.00,,,0.00,199.0,meteohub,2013-03-03 19:18:00,
2013-03-03 15:23:00,86.2,72.5,29.92,NE,40,2.0,8.0,64,0.00,,,0.00,183.0,meteohub,2013-03-03 19:23:00,
2013-03-03 15:28:00,86.4,73.2,29.91,ENE,59,3.0,8.0,65,0.00,,,0.00,764.0,meteohub,2013-03-03 19:28:00,
2013-03-03 15:33:00,87.3,73.6,29.91,NE,42,2.0,6.0,64,0.00,,,0.00,699.0,meteohub,2013-03-03 19:33:00,
2013-03-03 15:38:00,87.3,73.6,29.91,NE,41,0.0,6.0,64,0.00,,,0.00,190.0,meteohub,2013-03-03 19:38:00,
2013-03-03 15:43:00,87.3,74.1,29.91,North,3,8.0,8.0,65,0.00,,,0.00,183.0,meteohub,2013-03-03 19:43:00,
2013-03-03 15:48:00,86.4,74.5,29.91,NE,42,3.0,10.0,68,0.00,,,0.00,202.0,meteohub,2013-03-03 19:48:00,
2013-03-03 15:53:00,85.6,74.3,29.91,NNE,17,3.0,10.0,69,0.00,,,0.00,236.0,meteohub,2013-03-03 19:53:00,
2013-03-03 15:58:00,85.6,73.9,29.91,NNE,30,4.0,11.0,68,0.00,,,0.00,646.0,meteohub,2013-03-03 19:58:00,
2013-03-03 16:03:00,85.8,73.9,29.91,NNE,20,4.0,11.0,68,0.00,,,0.00,195.0,meteohub,2013-03-03 20:03:00,
2013-03-03 16:08:00,86.2,74.3,29.91,NNE,13,8.0,11.0,68,0.00,,,0.00,195.0,meteohub,2013-03-03 20:08:00,
2013-03-03 16:13:00,85.8,74.5,29.91,North,356,1.0,10.0,69,0.00,,,0.00,185.0,meteohub,2013-03-03 20:13:00,
2013-03-03 16:18:00,85.6,75.2,29.91,North,0,6.0,11.0,71,0.00,,,0.00,544.0,meteohub,2013-03-03 20:18:00,
2013-03-03 16:23:00,85.3,74.3,29.91,NNE,27,3.0,11.0,70,0.00,,,0.00,206.0,meteohub,2013-03-03 20:23:00,
2013-03-03 16:28:00,84.9,74.5,29.92,North,7,5.0,11.0,71,0.00,,,0.00,148.0,meteohub,2013-03-03 20:28:00,
2013-03-03 16:33:00,84.6,74.5,29.92,NNE,13,6.0,12.0,72,0.00,,,0.00,141.0,meteohub,2013-03-03 20:33:00,
2013-03-03 16:38:00,84.4,74.8,29.92,NNW,342,3.0,12.0,73,0.00,,,0.00,141.0,meteohub,2013-03-03 20:38:00,
2013-03-03 16:43:00,84.4,75.2,29.93,North,353,4.0,12.0,74,0.00,,,0.00,151.0,meteohub,2013-03-03 20:43:00,
2013-03-03 16:48:00,84.0,74.8,29.93,North,353,2.0,10.0,74,0.00,,,0.00,120.0,meteohub,2013-03-03 20:48:00,
2013-03-03 16:53:00,83.7,74.5,29.93,North,0,7.0,10.0,74,0.00,,,0.00,232.0,meteohub,2013-03-03 20:53:00,
2013-03-03 16:58:00,83.7,74.8,29.93,North,350,1.0,11.0,75,0.00,,,0.00,106.0,meteohub,2013-03-03 20:58:00,
2013-03-03 17:04:00,83.1,74.3,29.93,North,0,5.0,12.0,75,0.00,,,0.00,62.0,meteohub,2013-03-03 21:04:00,
2013-03-03 17:09:00,82.9,74.1,29.93,North,350,2.0,12.0,75,0.00,,,0.00,91.0,meteohub,2013-03-03 21:09:00,
2013-03-03 17:14:00,82.8,73.9,29.94,North,0,5.0,12.0,75,0.00,,,0.00,67.0,meteohub,2013-03-03 21:14:00,
2013-03-03 17:19:00,82.8,73.9,29.94,NW,315,1.0,11.0,75,0.00,,,0.00,67.0,meteohub,2013-03-03 21:19:00,
2013-03-03 17:24:00,82.8,73.9,29.94,North,350,0.0,8.0,75,0.00,,,0.00,60.0,meteohub,2013-03-03 21:24:00,
2013-03-03 17:29:00,82.6,73.8,29.94,North,0,0.0,8.0,75,0.00,,,0.00,65.0,meteohub,2013-03-03 21:29:00,
2013-03-03 17:34:00,82.4,73.8,29.94,NNW,335,4.0,8.0,75,0.00,,,0.00,56.0,meteohub,2013-03-03 21:34:00,
2013-03-03 17:39:00,82.2,73.6,29.94,NNW,342,0.0,7.0,75,0.00,,,0.00,53.0,meteohub,2013-03-03 21:39:00,
2013-03-03 17:44:00,81.9,73.2,29.95,NW,320,3.0,8.0,75,0.00,,,0.00,33.0,meteohub,2013-03-03 21:44:00,
2013-03-03 17:49:00,81.7,73.4,29.95,NW,325,0.0,8.0,76,0.00,,,0.00,33.0,meteohub,2013-03-03 21:49:00,
2013-03-03 17:54:00,81.3,73.0,29.95,North,349,0.0,10.0,76,0.00,,,0.00,32.0,meteohub,2013-03-03 21:54:00,
2013-03-03 17:59:00,81.3,73.0,29.95,NNW,340,0.0,10.0,76,0.00,,,0.00,33.0,meteohub,2013-03-03 21:59:00,
2013-03-03 18:04:00,81.3,73.0,29.95,NW,316,0.0,10.0,76,0.00,,,0.00,28.0,meteohub,2013-03-03 22:04:00,
2013-03-03 18:09:00,81.3,73.0,29.95,NW,316,5.0,6.0,76,0.00,,,0.00,28.0,meteohub,2013-03-03 22:09:00,
2013-03-03 18:14:00,81.1,73.2,29.96,NNW,342,4.0,8.0,77,0.00,,,0.00,28.0,meteohub,2013-03-03 22:14:00,
2013-03-03 18:20:00,81.1,73.2,29.96,NW,311,6.0,8.0,77,0.00,,,0.00,21.0,meteohub,2013-03-03 22:20:00,
2013-03-03 18:25:00,81.0,73.0,29.96,NW,316,5.0,8.0,77,0.00,,,0.00,7.0,meteohub,2013-03-03 22:25:00,
2013-03-03 18:29:00,80.8,73.2,29.96,NW,311,6.0,7.0,78,0.00,,,0.00,0.0,meteohub,2013-03-03 22:29:00,
2013-03-03 18:35:00,80.4,72.9,29.96,NW,309,6.0,7.0,78,0.00,,,0.00,0.0,meteohub,2013-03-03 22:35:00,
2013-03-03 18:40:00,80.4,73.2,29.96,NW,319,0.0,7.0,79,0.00,,,0.00,0.0,meteohub,2013-03-03 22:40:00,
2013-03-03 18:45:00,80.2,73.0,29.96,NW,313,0.0,7.0,79,0.00,,,0.00,0.0,meteohub,2013-03-03 22:45:00,
2013-03-03 18:50:00,80.2,73.0,29.96,NW,312,0.0,7.0,79,0.00,,,0.00,0.0,meteohub,2013-03-03 22:50:00,
2013-03-03 18:55:00,80.1,73.0,29.96,NW,313,0.0,7.0,79,0.00,,,0.00,0.0,meteohub,2013-03-03 22:55:00,
2013-03-03 19:00:00,80.1,73.0,29.96,NW,312,0.0,7.0,79,0.00,,,0.00,0.0,meteohub,2013-03-03 23:00:00,
2013-03-03 19:05:00,79.9,72.9,29.96,NW,312,0.0,5.0,79,0.00,,,0.00,0.0,meteohub,2013-03-03 23:05:00,
2013-03-03 19:10:00,79.9,72.9,29.96,NW,312,0.0,6.0,79,0.00,,,0.00,0.0,meteohub,2013-03-03 23:10:00,
2013-03-03 19:15:00,79.9,72.9,29.97,NW,312,0.0,6.0,79,0.00,,,0.00,0.0,meteohub,2013-03-03 23:15:00,
2013-03-03 19:20:00,79.9,72.9,29.97,NW,313,0.0,6.0,79,0.00,,,0.00,0.0,meteohub,2013-03-03 23:20:00,
2013-03-03 19:25:00,79.5,72.1,29.97,NW,313,0.0,0.0,78,0.00,,,0.00,0.0,meteohub,2013-03-03 23:25:00,
2013-03-03 19:30:00,79.9,72.3,29.97,NW,313,0.0,0.0,78,0.00,,,0.00,0.0,meteohub,2013-03-03 23:30:00,
2013-03-03 19:35:00,79.9,72.3,29.97,NW,313,0.0,0.0,78,0.00,,,0.00,0.0,meteohub,2013-03-03 23:35:00,
2013-03-03 19:40:00,79.9,72.3,29.97,NW,313,0.0,0.0,78,0.00,,,0.00,0.0,meteohub,2013-03-03 23:40:00,
2013-03-03 19:45:00,79.5,71.6,29.98,NW,313,0.0,0.0,77,0.00,,,0.00,0.0,meteohub,2013-03-03 23:45:00,
2013-03-03 19:50:00,79.5,71.6,29.98,NW,313,0.0,2.0,77,0.00,,,0.00,0.0,meteohub,2013-03-03 23:50:00,
2013-03-03 19:56:00,79.5,71.6,29.98,NW,316,0.0,2.0,77,0.00,,,0.00,0.0,meteohub,2013-03-03 23:56:00,
2013-03-03 20:01:00,79.5,71.6,29.98,NW,313,0.0,2.0,77,0.00,,,0.00,0.0,meteohub,2013-03-04 00:01:00,
2013-03-03 20:06:00,79.5,71.6,29.98,NW,313,0.0,0.0,77,0.00,,,0.00,0.0,meteohub,2013-03-04 00:06:00,
2013-03-03 20:11:00,79.5,71.6,29.98,NW,313,0.0,0.0,77,0.00,,,0.00,0.0,meteohub,2013-03-04 00:11:00,
2013-03-03 20:16:00,79.3,71.4,29.99,NW,313,0.0,0.0,77,0.00,,,0.00,0.0,meteohub,2013-03-04 00:16:00,
2013-03-03 20:21:00,79.3,71.4,29.99,NW,312,0.0,0.0,77,0.00,,,0.00,0.0,meteohub,2013-03-04 00:21:00,
2013-03-03 20:26:00,79.2,71.2,29.99,NW,315,0.0,0.0,77,0.00,,,0.00,0.0,meteohub,2013-03-04 00:26:00,
2013-03-03 20:31:00,79.2,71.2,29.99,NW,313,0.0,0.0,77,0.00,,,0.00,0.0,meteohub,2013-03-04 00:31:00,
2013-03-03 20:36:00,79.0,71.1,29.99,NW,313,0.0,0.0,77,0.00,,,0.00,0.0,meteohub,2013-03-04 00:36:00,
2013-03-03 20:41:00,78.8,71.1,29.99,NW,313,0.0,0.0,77,0.00,,,0.00,0.0,meteohub,2013-03-04 00:41:00,
2013-03-03 20:46:00,79.0,71.1,30.00,NW,313,0.0,0.0,77,0.00,,,0.00,0.0,meteohub,2013-03-04 00:46:00,
2013-03-03 20:51:00,79.3,71.4,30.00,NW,313,0.0,0.0,77,0.00,,,0.00,0.0,meteohub,2013-03-04 00:51:00,
2013-03-03 20:56:00,79.0,71.1,30.00,NW,315,0.0,0.0,77,0.00,,,0.00,0.0,meteohub,2013-03-04 00:56:00,
2013-03-03 21:01:00,79.0,71.1,30.00,NW,313,0.0,0.0,77,0.00,,,0.00,0.0,meteohub,2013-03-04 01:01:00,
2013-03-03 21:06:00,79.0,71.1,30.00,NW,312,0.0,0.0,77,0.00,,,0.00,0.0,meteohub,2013-03-04 01:06:00,
2013-03-03 21:11:00,79.3,71.1,30.00,NW,313,0.0,0.0,76,0.00,,,0.00,0.0,meteohub,2013-03-04 01:11:00,
2013-03-03 21:16:00,79.5,70.9,30.01,NW,315,0.0,0.0,75,0.00,,,0.00,0.0,meteohub,2013-03-04 01:16:00,
2013-03-03 21:21:00,79.5,70.9,30.01,NW,313,0.0,0.0,75,0.00,,,0.00,0.0,meteohub,2013-03-04 01:21:00,
2013-03-03 21:27:00,79.5,70.9,30.01,NW,313,0.0,0.0,75,0.00,,,0.00,0.0,meteohub,2013-03-04 01:27:00,
2013-03-03 21:32:00,79.2,70.9,30.01,NW,313,0.0,0.0,76,0.00,,,0.00,0.0,meteohub,2013-03-04 01:32:00,
2013-03-03 21:37:00,79.0,70.7,30.01,NW,313,0.0,0.0,76,0.00,,,0.00,0.0,meteohub,2013-03-04 01:37:00,
2013-03-03 21:42:00,79.0,70.7,30.01,NW,313,0.0,0.0,76,0.00,,,0.00,0.0,meteohub,2013-03-04 01:42:00,
2013-03-03 21:47:00,79.0,71.1,30.01,NW,313,0.0,0.0,77,0.00,,,0.00,0.0,meteohub,2013-03-04 01:47:00,
2013-03-03 21:52:00,78.6,70.9,30.01,NW,313,0.0,0.0,77,0.00,,,0.00,0.0,meteohub,2013-03-04 01:52:00,
2013-03-03 21:57:00,78.4,70.7,30.01,NW,313,0.0,0.0,77,0.00,,,0.00,0.0,meteohub,2013-03-04 01:57:00,
2013-03-03 22:02:00,78.4,71.1,30.02,NW,313,0.0,0.0,78,0.00,,,0.00,0.0,meteohub,2013-03-04 02:02:00,
2013-03-03 22:07:00,78.6,71.2,30.02,NW,313,0.0,0.0,78,0.00,,,0.00,0.0,meteohub,2013-03-04 02:07:00,
2013-03-03 22:12:00,78.6,71.2,30.02,NW,313,0.0,0.0,78,0.00,,,0.00,0.0,meteohub,2013-03-04 02:12:00,
2013-03-03 22:17:00,78.6,71.6,30.02,NW,313,0.0,0.0,79,0.00,,,0.00,0.0,meteohub,2013-03-04 02:17:00,
2013-03-03 22:22:00,78.6,71.6,30.02,NW,313,0.0,0.0,79,0.00,,,0.00,0.0,meteohub,2013-03-04 02:22:00,
2013-03-03 22:27:00,78.6,72.0,30.02,NW,313,0.0,0.0,80,0.00,,,0.00,0.0,meteohub,2013-03-04 02:27:00,
2013-03-03 22:32:00,78.6,72.0,30.02,NW,313,0.0,0.0,80,0.00,,,0.00,0.0,meteohub,2013-03-04 02:32:00,
2013-03-03 22:37:00,78.4,71.8,30.02,NW,313,0.0,0.0,80,0.00,,,0.00,0.0,meteohub,2013-03-04 02:37:00,
2013-03-03 22:42:00,78.3,72.0,30.02,NW,313,0.0,0.0,81,0.00,,,0.00,0.0,meteohub,2013-03-04 02:42:00,
2013-03-03 22:47:00,78.1,71.8,30.02,NW,313,0.0,0.0,81,0.00,,,0.00,0.0,meteohub,2013-03-04 02:47:00,
2013-03-03 22:52:00,78.1,71.8,30.02,NW,312,0.0,0.0,81,0.00,,,0.00,0.0,meteohub,2013-03-04 02:52:00,
2013-03-03 22:57:00,78.1,71.8,30.02,NW,313,0.0,0.0,81,0.00,,,0.00,0.0,meteohub,2013-03-04 02:57:00,
2013-03-03 23:02:00,77.9,72.0,30.02,NW,313,0.0,0.0,82,0.00,,,0.00,0.0,meteohub,2013-03-04 03:02:00,
2013-03-03 23:07:00,77.9,72.0,30.02,NW,313,0.0,0.0,82,0.00,,,0.00,0.0,meteohub,2013-03-04 03:07:00,
2013-03-03 23:12:00,77.7,71.8,30.02,NW,312,0.0,0.0,82,0.00,,,0.00,0.0,meteohub,2013-03-04 03:12:00,
2013-03-03 23:17:00,77.7,72.1,30.02,NW,313,0.0,0.0,83,0.00,,,0.00,0.0,meteohub,2013-03-04 03:17:00,
2013-03-03 23:22:00,77.4,71.8,30.02,NW,313,0.0,0.0,83,0.00,,,0.00,0.0,meteohub,2013-03-04 03:22:00,
2013-03-03 23:27:00,77.4,72.1,30.02,NW,313,0.0,0.0,84,0.00,,,0.00,0.0,meteohub,2013-03-04 03:27:00,
2013-03-03 23:32:00,77.4,72.1,30.02,NW,316,0.0,0.0,84,0.00,,,0.00,0.0,meteohub,2013-03-04 03:32:00,
2013-03-03 23:37:00,77.4,72.1,30.02,NW,313,0.0,0.0,84,0.00,,,0.00,0.0,meteohub,2013-03-04 03:37:00,
2013-03-03 23:42:00,77.4,71.8,30.02,NW,313,0.0,0.0,83,0.00,,,0.00,0.0,meteohub,2013-03-04 03:42:00,
2013-03-03 23:47:00,77.4,72.1,30.03,NW,315,0.0,0.0,84,0.00,,,0.00,0.0,meteohub,2013-03-04 03:47:00,
2013-03-03 23:52:00,77.4,72.1,30.03,NW,315,0.0,0.0,84,0.00,,,0.00,0.0,meteohub,2013-03-04 03:52:00,
2013-03-03 23:57:00,77.2,72.0,30.03,NW,313,0.0,0.0,84,0.00,,,0.00,0.0,meteohub,2013-03-04 03:57:00,